Regional Weather Roundup
Issued by NWS

Home | Current Version | Previous Version | Text Only | Print | Product List | Glossary Off
Versions: 1 2 3 4 5 6 7 8 9 10 11 12 13 14 15 16 17 18 19 20 21 22 23 24 25 26 27 28 29 30 31 32 33 34 35 36 37 38 39 40 41 42 43 44 45 46 47 48 49 50

000
ASUS44 KMEG 250200
RWRTN
TENNESSEE HOURLY STATE WEATHER ROUNDUP
NATIONAL WEATHER SERVICE MEMPHIS TN
800 PM CST FRI FEB 24 2017

TNZ002-004-019-021-049-052-054-088>092-250300-
WEST TENNESSEE

CITY           SKY/WX    TMP DP  RH WIND       PRES   REMARKS
MEMPHIS INTL   PTCLDY    63  54  72 N9        29.74R
NWS MEMPHIS      N/A     63 N/A N/A MISG        N/A
JACKSON        CLOUDY    64  55  72 NW12      29.73R
UNION CITY     CLOUDY    57  41  54 CALM      29.73R
PARIS          CLOUDY    61  54  77 W13       29.71R
$$

TNZ008-025-027-028-033-062-065-066-250300-
NORTH MIDDLE TENNESSEE

CITY           SKY/WX    TMP DP  RH WIND       PRES   REMARKS
NASHVILLE      CLOUDY    69  52  54 W13       29.68R
CLARKSVILLE    CLOUDY    65  51  60 SW10      29.67S
SMYRNA         CLOUDY    71  54  54 NW12G22   29.68R
CROSSVILLE     PTCLDY    67  51  56 S6        29.74S
$$

TNZ061-075-076-078-094-096-097-250300-
SOUTH MIDDLE TENNESSEE

CITY           SKY/WX    TMP DP  RH WIND       PRES   REMARKS
TULLAHOMA      MOCLDY    70  52  52 S9        29.72S
WINCHESTER     PTCLDY    68  54  60 S5        29.72R
MCMINNVILLE    CLOUDY    70  55  60 SW9       29.70S
COLUMBIA       CLOUDY    63  63 100 W5        29.68R
SHELBYVILLE    CLOUDY    72  55  56 S8        29.69F
$$

TNZ017-018-042-046-047-250300-
NORTHEAST TENNESSEE

CITY           SKY/WX    TMP DP  RH WIND       PRES   REMARKS
TRI CITIES     PTCLDY    65  50  58 S7        29.75R
$$

TNZ012-013-036-069-073-074-250300-
CENTRAL EAST TENNESSEE

CITY           SKY/WX    TMP DP  RH WIND       PRES   REMARKS
KNOXVILLE      PTCLDY    66  50  56 S7        29.72S
OAK RIDGE      CLOUDY    71  51  49 S7        29.73S
GATLINBURG     CLEAR     66  48  52 S5        29.74R
$$

TNZ083-085-099-250300-
SOUTHEAST TENNESSEE

CITY           SKY/WX    TMP DP  RH WIND       PRES   REMARKS
CHATTANOOGA    MOCLDY    71  52  50 S6        29.72F
$$

SKY/WX REPORTED AS FAIR MEANS FEW OR NO CLOUDS BELOW
12 THOUSAND FEET.





USA.gov is the U.S. government's official web portal to all federal, state and local government web resources and services.